{"data":{"norad_id":65081,"epoch":"2026-09-20T12:30:39.436128Z","epoch_age_seconds":119069,"freshness":"FRESH","line1":"1 65081U 25167D   26263.52128977  .00025746  00000+0  77050-3 0  9996","line2":"2 65081  53.1577 197.8870 0000487  89.4976 270.6083 15.34400804 64614","mean_motion":15.34400804,"eccentricity":4.87e-5,"inclination_deg":53.1577,"raan_deg":197.887,"arg_perigee_deg":89.4976,"mean_anomaly_deg":270.6083,"bstar":0.0007705,"rev_number":6461,"period_min":93.847708906701,"perigee_km":462.36770174739,"apogee_km":463.03399935404,"semimajor_km":6840.8378505507,"source":"CELESTRAK","updated_at":"2026-09-21T09:00:35.521272Z"}}